Location: Saluda
(35.2377°N, 82.3468°W)
Time: 15:00:04
(UTC+00:00)

Transit 2A - All Passes

Search period start: 03 October 2022 00:00
Search period end: 13 October 2022 00:00
Orbit: 601 x 956 km, 66.7° (Epoch: 02 October)

Date Brightness Start Highest point End Pass type
(mag) Time Alt. Az. Time Alt. Az. Time Alt. Az.
03 Oct - 03:51:02 10° SSW 03:55:35 72° ESE 03:59:55 10° NNE night (unlit)
03 Oct - 05:38:09 10° WNW 05:39:07 11° NW 05:40:05 10° NW night (unlit)
03 Oct - 12:39:47 10° N 12:43:58 28° ENE 12:48:27 10° ESE daylight
03 Oct - 14:22:43 10° NW 14:27:01 30° WSW 14:31:39 10° S daylight
04 Oct - 03:16:57 10° S 03:21:16 42° ESE 03:25:24 10° NE night (unlit)
04 Oct - 05:01:42 10° W 05:04:31 16° NW 05:07:17 10° NNW night (unlit)
04 Oct - 12:05:58 10° N 12:09:27 19° NE 12:13:08 10° E daylight
04 Oct - 13:48:01 10° NW 13:52:43 47° WSW 13:57:52 10° S daylight
05 Oct - 02:43:13 10° SSE 02:46:59 26° ESE 02:50:37 10° NE night (unlit)
05 Oct - 04:26:18 10° WSW 04:29:59 25° NW 04:33:35 10° N night (unlit)
05 Oct - 11:32:35 10° NNE 11:34:53 13° NE 11:37:15 10° ENE daylight
05 Oct - 13:13:30 10° NNW 13:18:23 74° WSW 13:23:45 10° SSE daylight
06 Oct - 02:10:01 10° SE 02:12:45 16° ESE 02:15:25 10° ENE night (unlit)
06 Oct - 03:51:19 10° SW 03:55:32 38° WNW 03:59:36 10° N night (unlit)
06 Oct - 12:39:10 10° NNW 12:44:01 72° ENE 12:49:23 10° SSE daylight
06 Oct - 14:25:03 10° W 14:26:43 11° WSW 14:28:25 10° SW daylight
07 Oct - 03:16:38 10° SW 03:21:07 64° WNW 03:25:26 10° NNE night (unlit)
07 Oct - 12:04:57 10° NNW 12:09:37 46° ENE 12:14:45 10° SE daylight
07 Oct - 13:49:03 10° WNW 13:52:29 19° WSW 13:56:08 10° SSW daylight
08 Oct - 02:42:15 10° SSW 02:46:45 77° ESE 02:51:06 10° NNE night (unlit)
08 Oct - 11:30:53 10° N 11:35:11 31° ENE 11:39:50 10° ESE daylight
08 Oct - 13:13:58 10° NW 13:18:13 29° WSW 13:22:50 10° SSW daylight
09 Oct - 02:08:07 10° S 02:12:26 45° ESE 02:16:36 10° NE night (unlit)
09 Oct - 03:53:07 10° W 03:55:44 15° NW 03:58:19 10° NNW night (unlit)
09 Oct - 10:57:01 10° N 11:00:41 21° NE 11:04:35 10° ESE visible
09 Oct - 12:39:13 10° NW 12:43:55 44° WSW 12:49:05 10° S daylight
10 Oct - 01:34:19 10° SSE 01:38:09 27° ESE 01:41:52 10° NE night (unlit)
10 Oct - 03:17:38 10° WSW 03:21:12 23° NW 03:24:41 10° N night (unlit)
10 Oct - 10:23:30 10° NNE 10:26:07 14° NE 10:28:50 10° E visible
10 Oct - 12:04:41 10° NNW 12:09:35 70° WSW 12:15:01 10° SSE daylight
11 Oct - 01:01:01 10° SSE 01:03:55 17° ESE 01:06:44 10° ENE night (unlit)
11 Oct - 02:42:36 10° SW 02:46:42 36° WNW 02:50:44 10° N night (unlit)
11 Oct - 11:30:18 10° NNW 11:35:13 77° ENE 11:40:41 10° SSE daylight
11 Oct - 13:16:36 10° W 13:17:54 11° WSW 13:19:12 10° WSW daylight
12 Oct - 02:07:52 10° SW 02:12:17 59° WNW 02:16:35 10° NNE night (unlit)
12 Oct - 10:56:04 10° NNW 11:00:50 49° ENE 11:06:05 10° SE visible
12 Oct - 12:40:19 10° WNW 12:43:41 18° WSW 12:47:13 10° SSW daylight
